Temperature
16 16 16 16 16 15 15 15 15 15 15 14 14 14 14 14 14 14 13 13 13 13 13 13 13 13 13 13 13 13 13 13 12 12 11 11 11 11 11 11 11 11 10
16 16 16 16 15 15 15 15 15 15 15 14 14 14 14 14 14 13 13 13 13 13 13 13 13 13 13 13 13 13 13 12 12 12 11 11 11 11 10 10 10 10 10
16 16 16 15 15 15 15 15 15 15 14 14 14 14 14 14 14 13 13 13 13 13 13 13 13 13 13 13 12 12 12 12 12 12 11 11 11 11 10 10 10 10 10
15 15 15 15 15 15 15 15 15 14 14 14 14 14 14 13 13 13 13 13 13 13 13 13 13 12 12 12 12 12 12 12 12 11 11 11 11 10 10 10 10 10 10
15 15 15 15 15 15 15 15 14 14 14 14 14 14 13 13 13 13 13 13 13 13 13 12 12 12 12 12 12 12 12 12 11 11 11 11 11 10 10 10 10 10 10
15 15 15 14 14 14 14 14 14 14 14 13 13 13 13 13 13 13 13 13 13 13 12 12 12 12 12 12 12 12 12 11 11 11 11 11 11 10 10 10 10 10 9
15 15 14 14 14 14 14 14 14 14 14 13 13 13 13 13 13 13 12 12 12 12 12 12 12 12 12 12 12 11 11 11 11 11 11 11 11 10 10 10 10 9 9
14 14 14 14 13 13 14 14 13 13 13 13 13 13 13 13 12 12 12 12 12 12 12 12 12 12 12 12 11 11 11 11 11 11 11 11 10 10 10 10 10 9 9
14 14 14 13 13 13 13 13 13 13 13 13 13 13 12 12 12 12 12 12 12 12 12 12 11 11 11 11 11 11 11 11 11 10 10 10 10 10 10 9 9 9 9
14 14 14 13 13 13 13 13 13 13 13 13 12 12 12 12 12 12 12 12 12 11 11 11 11 11 11 11 11 11 11 11 10 10 10 10 10 9 9 9 9 9 8
14 13 13 13 13 13 13 12 12 12 12 12 12 12 12 12 12 12 12 11 11 11 11 11 11 11 11 10 10 10 10 10 10 10 10 10 9 9 9 9 9 8 8
13 13 13 13 13 13 12 12 12 12 12 12 12 12 12 12 11 11 11 11 11 11 11 11 11 10 10 10 10 10 10 10 9 9 9 9 9 9 9 8 8 8 8
13 13 12 12 12 12 12 12 11 11 11 11 11 11 11 11 11 11 11 11 11 11 11 10 10 10 10 10 10 9 9 9 9 9 9 9 9 9 8 8 8 8 8
13 12 12 12 12 12 12 11 11 11 11 11 11 11 11 11 11 11 11 10 10 10 10 10 10 10 9 9 9 9 9 9 9 9 9 8 8 8 8 8 8 8 7
12 12 12 12 11 11 11 11 11 11 11 11 11 11 11 11 11 11 10 10 10 10 10 9 9 9 9 9 9 9 9 8 8 8 8 8 8 8 8 7 7 7 7
12 12 12 11 11 11 11 11 11 11 11 11 11 11 11 11 10 10 10 10 10 9 9 9 9 9 9 9 9 8 8 8 8 8 8 8 7 7 7 7 7 7 7
11 11 11 11 11 11 10 10 10 10 10 10 10 10 10 10 10 10 10 9 9 9 9 9 9 9 9 8 8 8 8 8 8 7 7 7 7 7 7 7 6 6 6
11 11 11 11 11 10 10 10 10 10 10 10 10 10 10 10 10 10 9 9 9 9 9 9 9 9 8 8 8 8 8 8 7 7 7 7 7 7 6 6 6 6 6
11 10 10 10 10 10 10 10 9 9 9 9 10 10 9 9 9 9 9 9 9 9 9 8 8 8 8 8 8 8 8 7 7 7 7 7 7 6 6 6 6 5 5
10 10 10 10 10 9 9 9 9 9 9 9 9 9 9 9 9 9 9 9 8 8 8 8 8 8 8 8 8 8 7 7 7 7 7 7 6 6 6 6 6 5 5
10 10 9 9 9 9 9 9 9 9 9 9 9 9 9 9 9 8 8 8 8 8 8 8 8 8 8 8 7 7 7 7 7 7 7 6 6 6 6 6 5 5 5
9 9 9 9 9 9 9 8 8 8 8 8 8 8 8 8 8 8 8 8 8 8 8 8 8 8 8 7 7 7 7 7 7 6 6 6 6 6 6 5 5 5 4
9 9 9 9 8 8 8 8 8 8 8 8 8 8 8 8 8 8 8 8 8 8 8 7 7 7 7 7 7 7 7 6 6 6 6 6 6 6 5 5 5 4 4
8 8 8 8 8 8 8 7 7 7 7 8 8 8 8 8 8 8 8 7 7 7 7 7 7 7 7 7 7 7 6 6 6 6 6 5 5 5 5 5 5 4 4
8 8 8 7 7 7 7 7 7 7 7 7 7 7 7 7 7 7 7 7 7 7 7 7 7 7 7 7 7 7 6 6 6 6 5 5 5 5 5 4 4 4 3
7 7 7 7 7 7 7 7 7 7 7 7 7 7 7 7 7 7 7 7 7 7 7 7 7 7 7 7 6 6 6 6 5 5 5 4 4 4 4 4 4 3 3
Wind_Speed
5 5 4 3 4 4 5 6 6 6 6 6 5 4 4 3 3 3 3 3 3 2 2 3 2 2 2 2 2 2 2 3 4 1 1 1 2 2 2 2 2 1 1
4 5 5 4 4 4 4 5 6 6 5 5 5 5 4 3 3 4 3 3 3 3 3 3 3 2 3 2 2 2 2 3 4 3 1 1 1 2 2 2 1 1 2
3 3 4 4 4 4 4 4 5 5 5 4 5 5 5 4 4 4 4 4 4 4 4 4 4 4 3 2 2 3 2 3 3 4 2 1 1 1 1 0 0 0 1
3 3 3 4 5 4 4 4 4 5 5 5 5 5 5 4 4 4 4 3 3 3 3 4 4 5 5 4 3 4 4 4 3 4 2 1 0 0 1 1 1 1 1
4 4 4 4 4 4 3 3 4 4 5 5 4 4 4 4 4 4 4 4 4 3 2 3 4 5 6 5 4 5 5 4 3 3 2 1 1 1 2 2 2 1 2
4 4 3 3 3 4 4 4 4 4 4 5 5 5 4 3 5 7 5 4 4 4 3 2 2 3 5 6 7 8 8 6 5 4 3 3 4 3 2 2 2 0 2
4 3 3 4 3 4 4 4 4 4 4 5 5 5 4 4 6 7 7 4 4 4 4 3 2 2 3 3 4 5 6 7 8 6 6 6 5 6 5 3 3 3 3
3 3 3 4 4 3 3 4 4 3 3 5 5 5 4 4 6 7 7 4 3 3 4 4 4 3 4 4 4 3 2 3 5 5 6 6 6 6 6 5 5 2 1
3 4 4 4 4 3 3 4 3 3 3 4 4 5 5 5 6 7 7 4 3 3 3 4 4 4 6 7 5 4 3 2 3 5 6 6 6 6 7 4 3 2 1
5 5 4 5 5 4 4 3 2 3 3 3 4 5 6 5 6 7 7 4 3 3 2 3 6 6 7 8 6 5 4 4 2 2 1 2 3 4 6 5 5 4 2
4 4 4 4 5 5 4 2 2 3 3 3 3 3 4 5 6 8 8 4 5 4 3 3 4 7 7 8 7 5 6 5 3 3 2 1 1 1 2 4 5 4 4
3 4 4 4 4 3 3 2 2 3 3 3 3 2 2 3 5 6 8 7 6 5 4 4 4 6 7 7 6 6 5 4 2 2 2 2 2 2 2 3 4 4 5
3 4 4 4 3 3 4 3 2 3 3 3 3 3 3 2 3 6 7 8 7 5 4 5 5 5 5 4 5 6 5 3 3 3 3 3 3 3 2 1 1 2 1
4 3 3 4 3 3 3 3 3 4 4 3 3 4 3 3 3 3 3 3 5 4 3 4 4 4 3 3 2 3 3 4 4 4 4 3 2 2 2 2 2 1 0
3 3 3 4 4 4 3 3 4 5 6 6 5 5 5 5 7 7 5 4 4 4 3 1 1 1 2 2 2 2 2 3 3 2 2 2 2 2 2 2 2 2 2
3 2 2 3 3 3 3 2 2 3 4 5 5 5 5 6 6 8 8 7 7 7 4 3 3 4 5 5 4 4 3 4 4 3 3 3 4 3 2 1 1 2 3
5 4 3 3 3 4 4 4 2 2 2 3 4 5 5 5 5 7 8 7 7 7 4 4 4 5 5 5 5 5 5 5 4 4 4 4 4 3 3 3 3 3 3
5 5 4 4 4 4 4 4 4 4 3 3 3 4 5 5 6 7 7 5 3 4 4 5 5 5 5 5 5 5 4 4 4 4 4 4 4 4 4 4 4 4 4
4 4 4 4 4 4 4 3 3 4 4 3 2 3 4 4 4 5 6 4 5 5 5 5 5 5 5 5 5 5 5 5 5 4 4 4 4 4 4 4 4 6 4
4 5 4 4 4 3 3 4 4 4 5 4 5 4 3 2 2 3 4 4 5 6 6 6 6 6 6 5 5 5 5 5 5 5 5 5 5 4 5 6 5 5 5
3 4 5 4 4 4 4 5 5 5 5 5 5 5 6 5 6 6 5 6 6 7 7 7 6 6 6 5 5 6 6 6 5 5 5 5 5 5 5 5 5 5 4
4 4 4 4 4 4 4 4 4 5 5 6 4 4 7 5 5 5 6 7 7 6 6 6 6 6 6 6 7 6 6 6 6 6 6 5 5 5 5 5 5 4 4
4 4 4 4 4 5 4 4 4 5 5 5 5 4 5 5 6 6 6 6 6 6 5 5 6 6 6 6 7 7 8 8 7 7 6 6 5 5 5 5 6 5 5
4 4 4 4 4 4 5 5 5 5 5 5 5 5 5 5 6 6 6 5 5 5 5 6 6 8 8 7 8 10 11 11 10 9 9 7 6 6 5 5 6 6 6
3 4 4 4 4 4 4 4 5 5 5 5 5 4 4 4 5 5 5 5 5 5 6 6 6 7 9 10 10 10 12 14 13 11 9 7 7 7 6 6 5 5 5
3 4 4 3 4 4 4 4 4 4 4 4 4 3 4 4 4 5 4 4 4 5 5 5 7 8 9 10 12 14 14 14 15 14 11 7 7 7 6 6 6 6 5
Wind_Direction
188 182 176 177 182 183 180 184 180 175 169 170 177 169 164 160 149 140 151 154 151 147 137 137 143 132 119 109 115 128 130 133 146 206 213 180 151 162 163 178 194 196 202
196 182 179 170 162 171 182 183 176 172 173 175 171 169 172 166 161 157 169 169 168 167 166 153 160 141 123 119 122 124 136 141 144 155 186 169 187 188 169 171 204 218 207
181 176 173 163 161 170 178 179 175 170 171 172 167 172 174 173 169 171 168 173 177 178 175 173 176 155 151 149 141 134 130 121 123 144 172 186 195 161 133 192 236 294 228
172 172 184 183 178 176 174 173 174 171 170 173 176 179 177 174 171 171 163 161 167 176 179 178 176 171 172 166 157 150 136 119 120 133 143 152 180 167 128 166 308 309 277
172 179 195 201 180 167 165 170 171 173 177 171 165 169 173 171 176 169 165 163 162 158 159 172 180 180 175 170 167 162 148 140 139 143 155 149 187 173 201 202 211 293 308
177 189 187 172 171 171 168 164 158 171 177 166 168 171 174 191 185 177 169 164 164 164 169 178 186 180 178 176 172 171 166 164 171 171 182 189 211 210 198 184 175 146 284
181 188 175 174 174 186 180 161 165 175 173 172 179 175 181 189 176 173 169 165 170 178 178 181 195 189 167 165 167 171 183 190 184 180 188 202 202 203 183 183 191 195 224
177 180 177 178 182 177 174 176 179 177 178 185 183 185 185 200 187 176 166 153 168 187 189 189 185 190 188 169 159 158 181 204 201 194 199 208 207 197 189 190 192 190 264
194 192 186 179 179 177 181 189 185 176 181 188 183 182 185 205 197 182 165 155 174 201 203 195 188 192 199 179 161 167 187 236 218 206 212 209 203 193 175 142 140 146 256
205 200 191 183 180 186 191 191 182 179 186 182 187 188 184 194 195 186 171 165 181 203 211 212 207 202 202 185 174 172 189 219 198 178 200 203 189 182 177 174 175 177 201
204 189 186 186 186 186 180 176 177 171 163 173 192 200 194 199 199 190 181 180 189 196 210 221 224 209 201 195 187 190 207 195 176 169 174 175 151 169 187 189 185 181 190
185 182 192 197 196 183 169 183 183 169 172 189 199 217 221 218 212 203 195 194 188 187 207 217 215 202 203 201 197 204 197 169 154 157 172 196 202 218 219 201 193 196 202
177 193 200 199 193 181 179 189 196 180 183 201 203 216 230 229 229 217 207 202 195 195 206 202 202 201 197 197 200 196 184 168 166 181 205 222 219 213 200 188 174 175 231
182 200 199 190 193 192 188 189 195 198 198 204 206 218 221 221 220 214 206 197 195 201 203 203 199 199 189 190 196 193 181 184 184 200 214 224 204 190 198 189 190 182 223
187 200 203 194 190 195 197 201 206 216 207 202 212 210 208 219 223 205 188 192 194 196 166 145 158 176 197 207 205 204 192 183 200 207 204 205 201 204 226 205 189 184 204
194 207 207 200 195 194 194 226 272 250 235 213 212 215 228 229 212 199 198 199 194 174 153 183 205 207 210 209 208 213 212 211 214 207 204 209 206 205 217 218 192 194 217
199 204 209 200 189 194 197 200 229 300 315 243 225 229 226 214 203 197 197 196 189 169 180 204 212 215 217 213 211 213 221 219 206 203 208 213 211 206 206 215 210 215 229
200 204 202 199 194 197 204 207 207 210 241 269 267 253 235 217 204 199 191 169 184 193 208 214 218 218 215 215 215 218 220 211 203 208 210 213 212 210 214 218 219 221 228
201 202 199 195 195 202 206 208 213 214 222 237 253 269 244 224 213 206 178 186 202 213 218 222 223 221 220 218 218 217 214 211 206 205 210 213 212 208 217 221 223 226 226
208 210 198 191 192 197 202 206 214 217 222 229 230 234 214 186 209 218 210 213 216 219 218 223 226 224 220 217 215 212 212 214 210 211 214 215 214 211 217 220 220 225 230
204 206 206 203 200 202 206 211 215 217 221 230 236 232 208 204 213 217 219 223 224 225 222 222 224 223 220 216 213 210 211 217 216 214 215 216 214 215 220 219 218 222 227
201 202 204 207 206 206 210 215 218 221 223 229 243 237 217 216 219 219 224 229 230 228 226 222 223 223 219 215 212 211 214 217 218 215 215 217 218 214 212 213 215 219 223
202 209 213 210 206 210 213 215 216 222 229 230 231 225 216 223 229 228 230 234 233 230 225 220 226 228 221 218 213 210 214 217 216 210 209 211 212 212 212 214 215 220 225
201 208 210 209 206 206 212 218 220 225 229 230 235 231 224 225 231 234 237 237 237 235 226 221 223 225 223 221 221 219 218 217 213 207 203 206 211 213 213 215 218 221 224
200 206 209 211 213 215 219 221 221 225 228 230 236 236 233 233 236 240 241 238 237 239 235 226 227 229 227 223 222 222 221 219 216 211 203 205 208 211 211 214 219 224 225
203 207 211 213 215 218 219 223 225 229 235 240 238 237 237 240 243 244 242 240 242 242 242 234 229 230 231 230 227 224 222 218 215 211 205 204 207 213 212 215 217 220 224
Height
1537 1538 1539 1540 1541 1541 1542 1543 1544 1545 1546 1546 1547 1547 1547 1548 1548 1548 1549 1549 1549 1549 1550 1550 1550 1551 1551 1552 1552 1553 1553 1553 1553 1554 1555 1555 1555 1555 1555 1555 1555 1555 1554
1535 1536 1537 1538 1538 1539 1540 1540 1542 1543 1544 1545 1545 1546 1546 1546 1547 1547 1547 1548 1548 1548 1548 1549 1549 1550 1550 1551 1551 1551 1552 1552 1553 1553 1553 1554 1554 1555 1555 1554 1554 1554 1554
1533 1533 1534 1535 1536 1536 1537 1539 1540 1541 1542 1543 1543 1544 1544 1545 1545 1545 1546 1546 1547 1547 1547 1548 1548 1548 1549 1549 1550 1550 1550 1551 1551 1552 1552 1553 1553 1553 1554 1554 1553 1553 1553
1530 1531 1531 1532 1533 1534 1535 1536 1537 1538 1539 1540 1541 1542 1542 1543 1543 1544 1544 1545 1545 1545 1546 1546 1547 1547 1547 1548 1548 1548 1549 1549 1550 1550 1551 1551 1552 1552 1552 1552 1552 1552 1551
1528 1528 1529 1530 1531 1531 1533 1534 1534 1536 1536 1538 1538 1539 1540 1540 1541 1542 1542 1543 1543 1544 1544 1544 1545 1545 1546 1546 1546 1547 1547 1548 1548 1549 1549 1549 1550 1550 1550 1550 1550 1550 1550
1525 1525 1526 1527 1528 1528 1530 1530 1531 1532 1534 1535 1535 1536 1537 1538 1539 1539 1540 1541 1541 1541 1542 1542 1543 1544 1544 1544 1544 1545 1546 1546 1546 1547 1547 1547 1548 1548 1548 1548 1548 1548 1547
1522 1522 1523 1524 1524 1525 1526 1527 1528 1529 1530 1531 1532 1533 1534 1535 1536 1537 1537 1538 1538 1539 1540 1540 1540 1541 1541 1542 1542 1543 1543 1544 1545 1545 1545 1545 1545 1546 1546 1546 1546 1545 1545
1519 1519 1520 1521 1521 1522 1523 1524 1524 1526 1527 1528 1529 1530 1531 1532 1533 1533 1534 1535 1535 1536 1537 1537 1538 1538 1539 1539 1539 1540 1540 1541 1541 1542 1542 1542 1543 1543 1543 1544 1543 1543 1543
1516 1516 1517 1517 1518 1519 1519 1520 1521 1522 1523 1524 1526 1527 1527 1528 1529 1530 1531 1531 1532 1533 1533 1534 1535 1535 1536 1536 1537 1537 1537 1538 1538 1539 1539 1539 1540 1540 1540 1541 1540 1540 1539
1513 1513 1514 1514 1515 1515 1516 1517 1518 1519 1520 1521 1523 1524 1524 1525 1526 1527 1528 1528 1529 1529 1530 1531 1531 1532 1533 1533 1533 1533 1534 1535 1535 1535 1536 1536 1536 1537 1537 1537 1537 1537 1536
1510 1510 1511 1512 1512 1513 1513 1514 1515 1516 1517 1518 1520 1521 1521 1522 1523 1524 1524 1525 1525 1526 1526 1527 1528 1528 1529 1529 1530 1530 1531 1532 1532 1532 1532 1532 1532 1533 1533 1533 1534 1533 1533
1506 1507 1508 1508 1509 1510 1510 1511 1512 1512 1513 1515 1516 1517 1518 1519 1519 1520 1521 1521 1522 1522 1522 1523 1524 1524 1525 1526 1526 1527 1527 1528 1528 1528 1528 1528 1528 1529 1529 1530 1530 1530 1529
1503 1503 1504 1505 1506 1506 1507 1507 1508 1509 1510 1511 1512 1513 1513 1515 1515 1516 1517 1517 1518 1519 1519 1519 1520 1520 1521 1521 1522 1522 1523 1523 1524 1524 1524 1524 1525 1525 1526 1526 1526 1526 1525
1499 1500 1501 1502 1502 1503 1504 1505 1505 1505 1506 1507 1508 1508 1509 1510 1511 1512 1513 1513 1514 1515 1515 1515 1516 1516 1517 1517 1518 1518 1518 1519 1519 1520 1520 1520 1521 1521 1521 1521 1521 1521 1520
1496 1496 1497 1498 1499 1499 1500 1501 1501 1502 1502 1503 1503 1504 1505 1506 1507 1508 1509 1509 1510 1511 1511 1511 1511 1511 1512 1512 1513 1513 1514 1514 1515 1515 1515 1516 1516 1516 1516 1516 1516 1516 1516
1492 1492 1493 1494 1495 1496 1496 1497 1497 1498 1499 1499 1500 1501 1501 1502 1503 1504 1505 1505 1506 1506 1507 1506 1506 1507 1507 1508 1508 1509 1509 1510 1510 1511 1511 1511 1511 1511 1512 1512 1512 1511 1511
1488 1488 1489 1490 1491 1491 1492 1492 1492 1493 1494 1495 1495 1496 1497 1497 1498 1499 1500 1501 1502 1502 1501 1501 1502 1502 1502 1503 1504 1504 1504 1505 1505 1506 1506 1506 1507 1507 1507 1507 1507 1506 1506
1483 1484 1484 1485 1486 1487 1487 1488 1488 1488 1489 1489 1490 1491 1492 1493 1494 1495 1496 1496 1496 1496 1496 1497 1497 1497 1498 1498 1499 1499 1500 1500 1500 1500 1501 1501 1501 1502 1502 1502 1502 1501 1501
1478 1479 1479 1480 1481 1482 1483 1484 1484 1484 1485 1485 1485 1486 1487 1488 1489 1490 1491 1491 1490 1491 1491 1492 1492 1493 1493 1494 1494 1494 1494 1495 1495 1495 1496 1496 1496 1496 1496 1497 1497 1496 1496
1473 1474 1475 1476 1477 1478 1478 1479 1479 1480 1480 1480 1480 1481 1482 1483 1483 1484 1484 1485 1485 1486 1486 1487 1487 1487 1488 1488 1489 1489 1489 1489 1490 1490 1490 1491 1491 1491 1491 1491 1491 1490 1490
1468 1469 1470 1471 1472 1472 1473 1474 1474 1474 1475 1475 1475 1476 1477 1477 1478 1478 1479 1479 1479 1480 1480 1481 1481 1482 1482 1483 1483 1483 1483 1483 1484 1484 1484 1485 1485 1485 1485 1485 1485 1485 1484
1463 1464 1465 1465 1466 1467 1468 1469 1469 1469 1470 1470 1470 1471 1471 1472 1472 1472 1473 1473 1474 1474 1475 1475 1475 1475 1476 1476 1477 1477 1477 1477 1478 1478 1478 1479 1479 1479 1479 1479 1479 1479 1478
1458 1458 1459 1460 1461 1462 1463 1464 1464 1464 1464 1465 1465 1465 1466 1466 1466 1467 1467 1467 1468 1468 1468 1468 1468 1469 1469 1470 1470 1471 1471 1471 1472 1472 1472 1473 1473 1473 1473 1473 1473 1473 1472
1453 1453 1454 1455 1456 1457 1457 1458 1459 1459 1459 1459 1459 1460 1460 1461 1461 1461 1461 1462 1461 1461 1461 1461 1461 1462 1463 1463 1464 1464 1464 1465 1466 1466 1466 1466 1467 1467 1467 1467 1467 1466 1466
1448 1448 1449 1450 1451 1451 1452 1453 1453 1454 1454 1454 1454 1455 1455 1455 1455 1455 1455 1455 1455 1455 1454 1454 1454 1455 1455 1456 1457 1457 1458 1458 1459 1460 1460 1460 1460 1461 1461 1460 1460 1460 1460
1443 1444 1444 1445 1446 1446 1447 1447 1448 1448 1448 1449 1449 1449 1449 1450 1450 1450 1449 1449 1448 1448 1448 1448 1448 1448 1448 1449 1450 1450 1451 1452 1452 1453 1453 1454 1454 1454 1454 1454 1454 1454 1453